This is the latest recevied weather packets stored in our database for station/object N3LF. If no packets are shown the sender has not sent any weather packets the latest 10 day(s).
| Time | Temp. | Humidity | Pressure | Rain* | Wind** | Luminosity | Snow |
|---|---|---|---|---|---|---|---|
| 1788302854 | 36.11° C | 50% | 1019.6 hPa | 0 mm | - | 107 W/m² | - |
| 1788302550 | 36.11° C | 50% | 1019.4 hPa | 0 mm | - | 119 W/m² | - |
| 1788302246 | 36.11° C | 50% | 1019.5 hPa | 0 mm | - | 129 W/m² | - |
| 1788301940 | 36.67° C | 50% | 1019.4 hPa | 0 mm | - | 135 W/m² | - |
| 1788301637 | 36.11° C | 49% | 1019.6 hPa | 0 mm | - | 146 W/m² | - |
| 1788301333 | 36.11° C | 48% | 1019.5 hPa | 0 mm | - | 171 W/m² | - |
| 1788301028 | 36.67° C | 51% | 1019.4 hPa | 0 mm | - | 182 W/m² | - |
| 1788300725 | 35.56° C | 50% | 1019.5 hPa | 0 mm | - | 198 W/m² | - |
| 1788300423 | 35.56° C | 50% | 1019.4 hPa | 0 mm | - | 209 W/m² | - |
| 1788300123 | 36.67° C | 51% | 1019.2 hPa | 0 mm | - | 219 W/m² | - |
| 1788299822 | 36.67° C | 49% | 1019.4 hPa | 0 mm | - | 232 W/m² | - |
| 1788299522 | 36.67° C | 53% | 1019.4 hPa | 0 mm | - | 248 W/m² | - |
| 1788299220 | 36.67° C | 50% | 1019.4 hPa | 0 mm | - | 262 W/m² | - |
| 1788298915 | 35.56° C | 52% | 1019.3 hPa | 0 mm | - | 280 W/m² | - |
| 1788298614 | 36.11° C | 50% | 1019.4 hPa | 0 mm | - | 299 W/m² | - |
| 1788298310 | 36.11° C | 49% | 1019.5 hPa | 0 mm | - | 309 W/m² | - |
| 1788298009 | 35° C | 52% | 1019.4 hPa | 0 mm | - | 319 W/m² | - |
| 1788297706 | 34.44° C | 53% | 1019.4 hPa | 0 mm | - | 344 W/m² | - |
| 1788297405 | 34.44° C | 54% | 1019.5 hPa | 0 mm | - | 356 W/m² | - |
| 1788297102 | 35° C | 57% | 1019.4 hPa | 0 mm | - | 348 W/m² | - |
| 1788296797 | 35° C | 52% | 1019.7 hPa | 0 mm | - | 186 W/m² | - |
| 1788296493 | 35° C | 53% | 1019.7 hPa | 0 mm | - | 106 W/m² | - |
| 1788296189 | 35.56° C | 51% | 1019.6 hPa | 0 mm | - | 106 W/m² | - |
| 1788295889 | 37.22° C | 50% | 1019.8 hPa | 0 mm | - | 113 W/m² | - |
| 1788295584 | 38.33° C | 48% | 1019.7 hPa | 0 mm | - | 418 W/m² | - |
* Rain latest hour (hover to see other rain measurements)
** Current wind speed in m/s (hover to see current wind gust speed)